This demonstration page uses our WeatherBlox Daily Observations layout. Learn more.

Left ArrowRight Arrow

39.51506, -84.39828

Hourly Observations for May 30, 2019

Temp ( °F °C ) Dew Point ( °F °C ) Humidity (%) Winds ( mph kmh ) Pressure ( in mb ) Visibility ( mi km ) Precip ( " mm )
12:15 am 00:15 Mostly Cloudy 70 21 68 20 94 94 SW 3 6 29.81 1010 10 16 N/A
12:35 am 00:35 Clear 70 21.2 67 19.7 91 91 SW 3 6 29.80 1009 10 16 N/A
12:55 am 00:55 Partly Cloudy 70 21 67 19.7 92 92 W 3 6 29.80 1009 10 16 N/A
1:15 am 01:15 Clear 69 20.6 67 19.7 95 95 SW 7 11 29.81 1010 10 16 N/A
1:35 am 01:35 Partly Cloudy 71 21.9 68 20.2 90 90 SW 9 15 29.82 1010 10 16 N/A
1:55 am 01:55 Cloudy with Thunderstorms 71 21.5 68 20.2 92 92 W 16 26 29.84 1011 7 11 0.02 0.51
2:15 am 02:15 Cloudy with Light Rain 69 20.7 66 19.1 91 91 W 8 13 29.82 1010 10 16 0.02 0.51
2:35 am 02:35 Cloudy with Light Rain 68 20.2 66 19 93 93 NW 7 11 29.79 1009 10 16 0.03 0.76
2:55 am 02:55 Mostly Cloudy 68 20 65 18.3 90 90 W 6 9 29.78 1009 10 16 0.03 0.76
3:15 am 03:15 Cloudy with Light Rain 68 19.8 65 18.6 93 93 SW 6 9 29.80 1009 10 16 N/A
3:35 am 03:35 Cloudy with Light Rain 68 19.9 66 18.7 93 93 SSW 3 6 29.76 1008 10 16 N/A
3:55 am 03:55 Mostly Cloudy with Light Rain 68 19.8 66 19 95 95 SW 5 7 29.77 1008 10 16 N/A
4:15 am 04:15 Mostly Cloudy 67 19.5 65 18.6 95 95 SW 5 7 29.77 1008 10 16 N/A
4:35 am 04:35 Clear 67 19.5 66 18.7 95 95 SW 5 7 29.77 1008 10 16 N/A
4:55 am 04:55 Cloudy 67 19.4 65 18.6 95 95 SW 7 11 29.77 1008 10 16 N/A
5:15 am 05:15 Partly Cloudy 67 19.3 65 18.6 96 96 SW 7 11 29.78 1008 10 16 N/A
5:35 am 05:35 Cloudy 67 19.2 65 18.5 96 96 SSW 6 9 29.78 1008 10 16 N/A
5:55 am 05:55 Cloudy 66 19 65 18.4 96 96 WSW 5 7 29.78 1008 10 16 N/A
6:15 am 06:15 Mostly Cloudy 66 18.7 64 17.9 95 95 W 5 7 29.78 1008 10 16 N/A
6:35 am 06:35 Cloudy 65 18.6 64 17.9 96 96 WSW 6 9 29.78 1008 10 16 N/A
6:55 am 06:55 Cloudy 66 18.7 64 17.9 95 95 WSW 6 9 29.79 1009 10 16 N/A
7:15 am 07:15 Cloudy 66 18.8 64 18 95 95 SW 5 7 29.79 1009 10 16 N/A
7:35 am 07:35 Cloudy 66 19 65 18.1 95 95 N N/A 29.80 1009 10 16 N/A
7:55 am 07:55 Cloudy 66 19.1 65 18.1 94 94 WSW 6 9 29.81 1009 10 16 N/A
8:15 am 08:15 Cloudy 67 19.4 65 18.1 92 92 W 6 9 29.81 1009 10 16 N/A
8:35 am 08:35 Cloudy 67 19.3 64 18 92 92 WSW 6 9 29.82 1010 10 16 N/A
8:55 am 08:55 Cloudy 67 19.5 64 18 91 91 WSW 7 11 29.81 1009 10 16 N/A
9:15 am 09:15 Mostly Cloudy 67 19.7 65 18.1 91 91 WSW 12 19 29.82 1010 10 16 N/A
9:35 am 09:35 Cloudy 68 19.8 64 17.9 89 89 WSW 10 17 29.82 1010 10 16 N/A
9:55 am 09:55 Mostly Cloudy 68 20.2 65 18.3 89 89 WSW 8 13 29.81 1010 10 16 N/A
10:15 am 10:15 Cloudy 68 20.1 65 18.2 89 89 WSW 8 13 29.81 1010 10 16 N/A
10:35 am 10:35 Cloudy with Light Rain 67 19.7 65 18.2 91 91 W 8 13 29.82 1010 7 11 0.01 0.25
10:55 am 10:55 Cloudy with Light Rain 67 19.6 65 18.6 94 94 WSW 6 9 29.82 1010 7 11 0.03 0.76
11:15 am 11:15 Cloudy with Rain 67 19.4 65 18.6 95 95 WSW 6 9 29.83 1010 4 6 0.02 0.51
11:35 am 11:35 Cloudy with Light Rain 67 19.4 66 18.8 96 96 WSW 7 11 29.83 1010 4 6 0.08 2.03
11:55 am 11:55 Cloudy with Light Rain 68 19.8 66 18.9 95 95 WSW 8 13 29.82 1010 10 16 0.08 2.03
12:15 pm 12:15 Cloudy with Light Rain 68 19.9 66 19.1 95 95 WSW 6 9 29.81 1010 10 16 N/A
12:35 pm 12:35 Cloudy with Light Rain 68 20.2 67 19.2 94 94 SW 7 11 29.80 1009 10 16 N/A
12:55 pm 12:55 Cloudy with Light Rain 68 20.1 66 19.1 94 94 WSW 8 13 29.81 1010 10 16 N/A
1:15 pm 13:15 Cloudy with Light Rain 68 20.1 66 18.9 93 93 WSW 8 13 29.80 1009 10 16 N/A
1:35 pm 13:35 Cloudy with Light Rain 68 20.2 67 19.2 94 94 WSW 7 11 29.79 1009 10 16 N/A
1:55 pm 13:55 Cloudy with Light Rain 68 20.1 66 19.1 94 94 W 6 9 29.78 1009 10 16 N/A
2:15 pm 14:15 Cloudy 68 20.2 66 19.1 93 93 W 6 9 29.79 1009 10 16 N/A
2:35 pm 14:35 Mostly Cloudy 70 21 66 19.1 89 89 W 8 13 29.79 1009 10 16 N/A
2:55 pm 14:55 Mostly Cloudy 71 21.4 67 19.2 87 87 W 8 13 29.79 1009 10 16 N/A
3:15 pm 15:15 Cloudy 70 21.2 66 19.1 88 88 W 10 17 29.81 1010 10 16 N/A
3:35 pm 15:35 Cloudy 71 21.5 66 19.1 86 86 WNW 8 13 29.80 1009 10 16 N/A
3:55 pm 15:55 Mostly Cloudy 73 22.8 67 19.7 83 83 W 8 13 29.80 1009 10 16 N/A
4:15 pm 16:15 Mostly Cloudy 73 22.5 67 19.3 82 82 W 10 17 29.80 1009 10 16 N/A
4:35 pm 16:35 Mostly Cloudy 75 23.7 68 19.8 79 79 WSW 13 20 29.80 1009 10 16 N/A
4:55 pm 16:55 Mostly Cloudy 74 23.4 67 19.6 79 79 WSW 7 11 29.79 1009 10 16 N/A
5:15 pm 17:15 Sunny 75 23.8 66 18.9 74 74 WSW 10 17 29.79 1009 10 16 N/A
5:35 pm 17:35 Sunny 74 23.6 66 19.1 76 76 WSW 8 13 29.79 1009 10 16 N/A
5:55 pm 17:55 Partly Cloudy 76 24.4 67 19.5 74 74 WSW 8 13 29.78 1009 10 16 N/A
6:15 pm 18:15 Mostly Cloudy 74 23.4 66 18.9 76 76 SW 8 13 29.78 1008 10 16 N/A
6:35 pm 18:35 Mostly Cloudy 75 23.8 66 19 75 75 SW 9 15 29.78 1008 10 16 N/A
6:55 pm 18:55 Sunny 76 24.2 66 18.7 71 71 WSW 8 13 29.78 1008 10 16 N/A
7:15 pm 19:15 Sunny 75 24.1 65 18.4 71 71 WSW 10 17 29.77 1008 10 16 N/A
7:35 pm 19:35 Sunny 75 23.9 65 18.3 71 71 WSW 6 9 29.77 1008 10 16 N/A
7:55 pm 19:55 Sunny 74 23.5 65 18.3 73 73 W 6 9 29.78 1008 10 16 N/A
8:15 pm 20:15 Sunny 73 22.7 65 18.3 76 76 W 5 7 29.80 1009 10 16 N/A
8:55 pm 20:55 Mostly Cloudy 68 20.1 66 19 93 93 NNE 6 9 29.81 1010 10 16 N/A
9:15 pm 21:15 Cloudy 70 21.3 63 17.2 78 78 NW 6 9 29.82 1010 10 16 N/A
9:35 pm 21:35 Cloudy 66 18.9 56 13.5 71 71 NNW 22 35 29.87 1011 10 16 N/A
9:55 pm 21:55 Cloudy with Thunderstorms 60 15.8 58 14.4 91 91 NE 7 11 29.85 1011 10 16 0.12 3.05
10:15 pm 22:15 Mostly Cloudy with Light Rain 61 16.1 58 14.6 91 91 N N/A 29.83 1010 10 16 0.02 0.51
10:35 pm 22:35 Mostly Cloudy 60 15.7 59 14.8 94 94 S 7 11 29.85 1011 10 16 0.02 0.51
10:55 pm 22:55 Partly Cloudy 61 16 59 15 94 94 N N/A 29.85 1011 10 16 0.02 0.51
11:15 pm 23:15 Clear 60 15.8 59 14.9 94 94 W 5 7 29.85 1011 10 16 N/A
11:35 pm 23:35 Clear 59 15.2 58 14.6 96 96 W 3 6 29.86 1011 10 16 N/A
11:55 pm 23:55 Partly Cloudy 59 15 58 14.6 97 97 WSW 3 6 29.86 1011 10 16 N/A

Powered by AerisWeather